Terminal Aerodrome Forecast
Issued by NWS

Home | Current Version | Previous Version | Text Only | Print | Product List | Glossary On
Versions: 1 2 3 4 5 6 7 8 9 10 11 12 13 14
202
FTPA31 PHFO 240757 AAA
TAFHMK
TAF AMD
PHMK 240757Z 2408/2506 04008KT P6SM SCT025 SCT045
     FM242000 05013G22KT P6SM SCT025 SCT045
     FM250500 05010G15KT P6SM SCT025 BKN045=

USA.gov is the U.S. government's official web portal to all federal, state and local government web resources and services.